sat.trackr.live / text

‹ back to catalog

STARLINK-4767

NORAD 53850 · 2022-114AJ

PAYLOAD ACTIVE UNKNOWN

§ Identity

Operator
Country
US
Launch date
2022-09-19
Launch site
AFETR
Launch vehicle
Mass (kg)
RCS (m²)

Purposes: comms

External: N2YO · Heavens-Above · Gunter

§ Orbital elements

Epoch: 2026-05-25T04:11:20.535072Z

Period
95.44 min
Inclination
53.2148°
Eccentricity
0.0001263
Mean motion
15.08837554 rev/d
Perigee alt
538.9 km
Apogee alt
540.6 km
Semi-major
6,917.9 km
B*
3.4824e-5
RAAN
310.3835°
Arg perigee
86.3952°
Mean anomaly
273.7185°
Rev number
20,452

§ Raw data

STARLINK-47671 53850U 22114AJ  26145.17454323  .00000266  00000+0  34824-4 0  99962 53850  53.2148 310.3835 0001263  86.3952 273.7185 15.08837554204526

JSON: /api/v1/satellites/53850 · /tle

For live sub-satellite position, see the globe view (requires WebGL).

§ Visibility from observer

Set your observer location to see the next 7 days of passes ≥ 10°. The values pass through the URL so the page stays shareable.

No JS? Fill the form by hand. The geolocation button needs JavaScript.